Flag for U.S.A. Weather past 2 weeks in Scranton, Pennsylvania, U.S.A.

Now
76 °F

Sunny.


Feels Like: 78 °F
Forecast: 54 / 80 °F
Wind: 6 mph from North

Location: Barre - Scranton - Wilkes-Barre / Scranton International Airport

Current Time: Jul 3, 2015 at 1:41:41 PM

Latest Report: Jul 3, 2015 at 12:54 PM


Visibility: 10 mi

Pressure: 29.98 "Hg

Humidity: 43%

Dew point: 52 °F

Location of ScrantonLocation

Historic Weather in Scranton — Graph

°F

Scranton temperature yesterday

Maximum temperature yesterday: 77 °F (at 1:54 PM)
Minimum temperature yesterday: 59 °F (at 2:54 AM)
Average temperature yesterday: 68 °F

Past Weeks' High & Low Weather Summary

 TemperatureHumidityPressure
High85 °F (Jun 22, 3:54 PM)100% (Jun 28, 6:54 AM)30.10 "Hg (Jun 28, 6:54 AM)
Low54 °F (Jun 25, 5:54 AM)34% (Jun 25, 1:54 PM)29.66 "Hg (Jun 28, 4:54 AM)
Average69 °F71%29.91 "Hg
* Reported Jun 18 11:54 AM — Jul 3 11:54 AM, Scranton, Weather by CustomWeather, © 2015

Note: Actual official high and low records may vary slightly from our data, if they occured in-between our weather recording intervals... More about our weather records

Advertising

Scranton weather history for previous 24 hours

 ConditionsComfort  
Time TempWeatherWind HumidityBarometerVisibility
11:54 AM
Fri, Jul 3
73 °FSunny.No wind41%30.00 "Hg10 mi
10:54 AM72 °FSunny.7 mph43%30.01 "Hg10 mi
9:54 AM69 °FSunny.8 mph49%30.01 "Hg10 mi
8:54 AM65 °FPassing clouds.6 mph59%30.02 "Hg10 mi
7:54 AM63 °FPartly sunny.5 mph68%30.00 "Hg10 mi
6:54 AM58 °FPassing clouds.3 mph84%29.99 "Hg10 mi
5:54 AM57 °FPartly cloudy.5 mph83%29.98 "Hg10 mi
4:54 AM57 °FPassing clouds.3 mph83%29.96 "Hg10 mi
3:54 AM58 °FClear.3 mph84%29.95 "Hg10 mi
2:54 AM59 °FPassing clouds.No wind84%29.94 "Hg10 mi
1:54 AM62 °FOvercast.3 mph78%29.95 "Hg10 mi
12:54 AM60 °FPassing clouds.No wind86%29.94 "Hg8 mi
11:54 PM
Thu, Jul 2
64 °FPassing clouds.7 mph78%29.92 "Hg9 mi
10:54 PM62 °FPassing clouds.No wind86%29.92 "Hg7 mi
9:54 PM67 °FClear.3 mph73%29.90 "Hg9 mi
8:54 PM68 °FSunny.No wind78%29.88 "Hg7 mi
7:54 PM73 °FSunny.3 mph55%29.88 "Hg10 mi
6:54 PM74 °FSunny.3 mph53%29.88 "Hg10 mi
5:54 PM75 °FPartly sunny.5 mph52%29.88 "Hg9 mi
4:54 PM75 °FBroken clouds.6 mph52%29.89 "Hg10 mi
3:54 PM76 °FBroken clouds.8 mph50%29.89 "Hg10 mi
2:54 PM77 °FPartly sunny.8 mph48%29.90 "Hg10 mi
1:54 PM77 °FPartly sunny.5 mph50%29.90 "Hg10 mi
Weather by CustomWeather, © 2015

See weather overviewHow to use our weather pages